timestamp,surface_pressure_avg,surface_temp_avg,battery_voltage,lat,long
2020-10-17 00:09:01+00:00,362.5845,13.0,12.73,47.84626,-54.09684
2020-10-17 00:19:01+00:00,360.4864,13.0,12.73,47.84626,-54.09684
2020-10-17 00:29:01+00:00,356.228,13.01,12.73,47.84626,-54.09684
2020-10-17 00:39:01+00:00,351.7396,13.03,12.73,47.84626,-54.09684
2020-10-17 00:49:01+00:00,347.4913,13.02,12.73,47.84626,-54.09684
2020-10-17 00:59:01+00:00,342.1797,13.0,12.73,47.84626,-54.09684
2020-10-17 01:09:01+00:00,336.3296,13.02,12.73,47.84626,-54.09684
2020-10-17 01:19:01+00:00,330.0714,13.01,12.73,47.84626,-54.09684
2020-10-17 01:29:01+00:00,325.2946,13.02,12.73,47.84626,-54.09684
2020-10-17 01:39:01+00:00,316.3947,13.02,12.73,47.84626,-54.09684
2020-10-17 01:49:01+00:00,306.723,13.0,12.73,47.84626,-54.09684
2020-10-17 01:59:01+00:00,297.5098,13.0,12.73,47.84626,-54.09684
2020-10-17 02:09:01+00:00,287.443,13.0,12.73,47.84626,-54.09684
2020-10-17 02:19:01+00:00,273.2247,13.01,12.73,47.84626,-54.09684
2020-10-17 02:29:01+00:00,262.0781,13.01,12.73,47.84626,-54.09684
2020-10-17 02:39:01+00:00,251.9981,13.02,12.73,47.84626,-54.09684
2020-10-17 02:49:01+00:00,240.8715,13.05,12.73,47.84626,-54.09684
2020-10-17 02:59:01+00:00,228.6497,13.07,12.73,47.84626,-54.09684
2020-10-17 03:09:01+00:00,218.6848,13.07,12.73,47.84626,-54.09684
2020-10-17 03:19:01+00:00,209.1115,13.07,12.73,47.84626,-54.09684
2020-10-17 03:29:01+00:00,198.2448,13.06,12.73,47.84626,-54.09684
2020-10-17 03:39:01+00:00,188.0781,13.06,12.73,47.84626,-54.09684
2020-10-17 03:49:01+00:00,178.6132,13.06,12.73,47.84626,-54.09684
2020-10-17 03:59:01+00:00,171.4948,13.07,12.73,47.84626,-54.09684
2020-10-17 04:09:01+00:00,167.1915,13.08,12.73,47.84626,-54.09684
2020-10-17 04:19:01+00:00,159.3482,13.08,12.73,47.84626,-54.09684
2020-10-17 04:29:01+00:00,153.8148,13.08,12.73,47.84626,-54.09684
2020-10-17 04:39:01+00:00,154.4165,13.08,12.73,47.84626,-54.09684
2020-10-17 04:49:01+00:00,152.1382,13.09,12.73,47.84626,-54.09684
2020-10-17 04:59:01+00:00,145.4298,13.09,12.73,47.84626,-54.09684
2020-10-17 05:09:01+00:00,145.6798,13.08,12.73,47.84626,-54.09684
2020-10-17 05:19:01+00:00,149.2398,13.09,12.73,47.84626,-54.09684
2020-10-17 05:29:01+00:00,146.3582,13.09,12.73,47.84626,-54.09684
2020-10-17 05:39:01+00:00,144.9715,13.09,12.73,47.84626,-54.09684
2020-10-17 05:49:01+00:00,149.7315,13.08,12.73,47.84626,-54.09684
2020-10-17 05:59:01+00:00,152.2332,13.09,12.73,47.84626,-54.09684
2020-10-17 06:09:01+00:00,151.5665,13.09,12.73,47.84626,-54.09684
2020-10-17 06:19:01+00:00,155.8498,13.09,12.73,47.84626,-54.09684
2020-10-17 06:29:01+00:00,163.3898,13.08,12.73,47.84626,-54.09684
2020-10-17 06:39:01+00:00,165.1049,13.09,12.73,47.84626,-54.09684
2020-10-17 06:49:01+00:00,167.8148,13.1,12.73,47.84626,-54.09684
2020-10-17 06:59:01+00:00,176.0648,13.08,12.73,47.84626,-54.09684
2020-10-17 07:09:01+00:00,182.3915,13.08,12.73,47.84626,-54.09684
2020-10-17 07:19:01+00:00,186.1381,13.09,12.73,47.84626,-54.09684
2020-10-17 07:29:01+00:00,190.6648,13.1,12.73,47.84626,-54.09684
2020-10-17 07:39:01+00:00,198.8398,13.09,12.73,47.84626,-54.09684
2020-10-17 07:49:01+00:00,205.6464,13.08,12.73,47.84626,-54.09684
2020-10-17 07:59:01+00:00,210.6448,13.08,12.73,47.84626,-54.09684
2020-10-17 08:09:01+00:00,219.4848,13.08,12.73,47.84626,-54.09684
2020-10-17 08:19:01+00:00,228.7965,13.07,12.73,47.84626,-54.09684
2020-10-17 08:29:01+00:00,237.2381,13.07,12.73,47.84626,-54.09684
2020-10-17 08:39:01+00:00,247.3931,13.06,12.73,47.84626,-54.09684
2020-10-17 08:49:01+00:00,256.3931,13.0,12.73,47.84626,-54.09684
2020-10-17 08:59:01+00:00,263.4781,13.0,12.73,47.84626,-54.09684
2020-10-17 09:09:01+00:00,273.1314,13.0,12.73,47.84626,-54.09684
2020-10-17 09:19:01+00:00,283.2797,13.0,12.73,47.84626,-54.09684
2020-10-17 09:29:01+00:00,289.4197,13.0,12.73,47.84626,-54.09684
2020-10-17 09:39:01+00:00,297.0514,13.0,12.73,47.84626,-54.09684
2020-10-17 09:49:01+00:00,310.788,13.0,12.73,47.84626,-54.09684
2020-10-17 09:59:01+00:00,320.7197,13.0,12.73,47.84626,-54.09684
2020-10-17 10:09:01+00:00,326.8247,13.0,12.73,47.84626,-54.09684
2020-10-17 10:19:01+00:00,337.1047,13.0,12.73,47.84626,-54.09684
2020-10-17 10:29:01+00:00,349.3746,13.0,12.73,47.84626,-54.09684
2020-10-17 10:39:01+00:00,355.9828,13.0,12.73,47.84626,-54.09684
2020-10-17 10:49:01+00:00,360.543,13.0,12.73,47.84626,-54.09684
2020-10-17 10:59:01+00:00,368.6046,13.0,12.73,47.84626,-54.09684
2020-10-17 11:09:01+00:00,375.0062,13.0,12.73,47.84626,-54.09684
2020-10-17 11:19:01+00:00,376.1412,13.0,12.73,47.84626,-54.09684
2020-10-17 11:29:01+00:00,377.5345,13.0,12.73,47.84626,-54.09684
2020-10-17 11:39:01+00:00,382.5628,13.0,12.73,47.84626,-54.09684
2020-10-17 11:49:01+00:00,383.6562,13.0,12.73,47.84626,-54.09684
2020-10-17 11:59:01+00:00,383.4681,13.0,12.73,47.84626,-54.09684
2020-10-17 12:09:01+00:00,384.8013,13.0,12.73,47.84626,-54.09684
2020-10-17 12:19:01+00:00,384.87800000000004,13.0,12.81,47.84626,-54.09684
2020-10-17 12:29:01+00:00,381.4163,13.0,12.81,47.84626,-54.09684
2020-10-17 12:39:01+00:00,376.9429,13.0,12.81,47.84626,-54.09684
2020-10-17 12:49:01+00:00,372.6379,13.0,12.81,47.84626,-54.09684
2020-10-17 12:59:01+00:00,366.0245,13.02,12.81,47.84626,-54.09684
2020-10-17 13:09:01+00:00,359.6729,13.08,12.81,47.84626,-54.09684
2020-10-17 13:19:01+00:00,354.1113,13.0,12.89,47.84626,-54.09684
2020-10-17 13:29:01+00:00,349.24300000000005,13.03,12.89,47.84626,-54.09684
2020-10-17 13:39:01+00:00,341.9097,13.06,12.89,47.84626,-54.09684
2020-10-17 13:49:01+00:00,333.5963,13.0,12.89,47.84626,-54.09684
2020-10-17 13:59:01+00:00,324.5214,13.0,12.89,47.84626,-54.09684
2020-10-17 14:09:01+00:00,315.3997,13.0,12.89,47.84626,-54.09684
2020-10-17 14:19:01+00:00,306.5814,13.0,13.13,47.84626,-54.09684
2020-10-17 14:29:01+00:00,297.043,13.0,13.13,47.84626,-54.09684
2020-10-17 14:39:01+00:00,285.7664,13.0,13.13,47.84626,-54.09684
2020-10-17 14:49:01+00:00,274.0064,13.02,13.13,47.84626,-54.09684
2020-10-17 14:59:01+00:00,263.6381,13.02,13.13,47.84626,-54.09684
2020-10-17 15:09:01+00:00,250.8364,13.0,13.13,47.84626,-54.09684
2020-10-17 15:19:01+00:00,237.6264,13.06,13.53,47.84626,-54.09684
2020-10-17 15:29:01+00:00,226.5765,13.09,13.53,47.84626,-54.09684
2020-10-17 15:39:01+00:00,217.2598,13.1,13.53,47.84626,-54.09684
2020-10-17 15:49:01+00:00,207.7198,13.1,13.53,47.84626,-54.09684
2020-10-17 15:59:01+00:00,198.0148,13.1,13.53,47.84626,-54.09684
2020-10-17 16:09:01+00:00,190.0631,13.1,13.53,47.84626,-54.09684
2020-10-17 16:19:01+00:00,182.4565,13.1,13.68,47.84626,-54.09684
2020-10-17 16:29:01+00:00,176.0415,13.1,13.68,47.84626,-54.09684
2020-10-17 16:39:01+00:00,171.8815,13.1,13.68,47.84626,-54.09684
2020-10-17 16:49:01+00:00,165.2982,13.1,13.68,47.84626,-54.09684
2020-10-17 16:59:01+00:00,156.8199,13.1,13.68,47.84626,-54.09684
2020-10-17 17:09:01+00:00,152.4149,13.1,13.68,47.84626,-54.09684
2020-10-17 17:19:01+00:00,150.3832,13.1,13.76,47.84626,-54.09684
2020-10-17 17:29:01+00:00,147.5232,13.1,13.76,47.84626,-54.09684
2020-10-17 17:39:01+00:00,145.5815,13.1,13.76,47.84626,-54.09684
2020-10-17 17:49:01+00:00,146.5465,13.1,13.76,47.84626,-54.09684
2020-10-17 17:59:01+00:00,147.1948,13.1,13.76,47.84626,-54.09684
2020-10-17 18:09:01+00:00,147.8199,13.1,13.76,47.84626,-54.09684
2020-10-17 18:19:01+00:00,149.4182,13.1,13.68,47.84626,-54.09684
2020-10-17 18:29:01+00:00,148.8432,13.1,13.68,47.84626,-54.09684
2020-10-17 18:39:01+00:00,151.1082,13.1,13.68,47.84626,-54.09684
2020-10-17 18:49:01+00:00,156.4482,13.1,13.68,47.84626,-54.09684
2020-10-17 18:59:01+00:00,158.1347,13.1,13.68,47.84626,-54.09684
2020-10-17 19:09:01+00:00,161.0748,13.1,13.68,47.84626,-54.09684
2020-10-17 19:19:01+00:00,169.3082,13.1,13.53,47.84626,-54.09684
2020-10-17 19:29:01+00:00,173.8082,13.1,13.53,47.84626,-54.09684
2020-10-17 19:39:01+00:00,175.7598,13.1,13.53,47.84626,-54.09684
2020-10-17 19:49:01+00:00,181.7048,13.1,13.53,47.84626,-54.09684
2020-10-17 19:59:01+00:00,187.9681,13.1,13.53,47.84626,-54.09684
2020-10-17 20:09:01+00:00,191.6198,13.1,13.53,47.84626,-54.09684
2020-10-17 20:19:01+00:00,193.4981,13.1,13.37,47.84626,-54.09684
2020-10-17 20:29:01+00:00,200.9398,13.1,13.37,47.84626,-54.09684
2020-10-17 20:39:01+00:00,209.8748,13.09,13.37,47.84626,-54.09684
2020-10-17 20:49:01+00:00,216.4197,13.09,13.37,47.84626,-54.09684
2020-10-17 20:59:01+00:00,224.3865,13.09,13.37,47.84626,-54.09684
2020-10-17 21:09:01+00:00,233.2814,13.09,13.37,47.84626,-54.09684
2020-10-17 21:19:01+00:00,240.7331,13.09,12.97,47.84626,-54.09684
2020-10-17 21:29:01+00:00,249.1981,13.1,12.97,47.84626,-54.09684
2020-10-17 21:39:01+00:00,259.6081,13.09,12.97,47.84626,-54.09684
2020-10-17 21:49:01+00:00,268.7214,13.09,12.97,47.84626,-54.09684
2020-10-17 21:59:01+00:00,275.8214,13.1,12.97,47.84626,-54.09684
2020-10-17 22:09:01+00:00,286.5281,13.1,12.97,47.84626,-54.09684
2020-10-17 22:19:01+00:00,298.1013,13.09,12.81,47.84626,-54.09684
2020-10-17 22:29:01+00:00,307.5347,13.09,12.81,47.84626,-54.09684
2020-10-17 22:39:01+00:00,314.0031,13.1,12.81,47.84626,-54.09684
2020-10-17 22:49:01+00:00,324.903,13.09,12.81,47.84626,-54.09684
2020-10-17 22:59:01+00:00,335.233,13.09,12.81,47.84626,-54.09684
2020-10-17 23:09:01+00:00,341.9512,13.1,12.81,47.84626,-54.09684
2020-10-17 23:19:01+00:00,345.9297,13.1,12.81,47.84626,-54.09684
2020-10-17 23:29:01+00:00,352.3596,13.1,12.81,47.84626,-54.09684
2020-10-17 23:39:01+00:00,358.408,13.07,12.81,47.84626,-54.09684
2020-10-17 23:49:01+00:00,359.4797,13.09,12.81,47.84626,-54.09684
2020-10-17 23:59:01+00:00,358.7227,13.1,12.81,47.84626,-54.09684
